ANS500 SAEZ-SARI

Flight info

Callsign ANS500
Flight time 1h 30m
Altitude 37000
Route LANDA1E LANDA UN785 GEMSU UT667 NAIDE NAIDE2Q
Aircraft B738/M-SABDE1E2FGHIM1RWXYZ/SB1

Departure

Time 2026-04-26 15:03
Airport Ezeiza International Airport - Ministro Pistarini (SAEZ)

Arrival

Time 2026-04-26 16:33
Airport Cataratas Del Iguazú International Airport (SARI)
Time Latitude Longitude Altitude Speed Heading
2026-04-26 14:30 -34.80890 -58.53755 74 ft 0 kts 252°
2026-04-26 14:48 -34.80883 -58.53729 66 ft 4 kts 249°
2026-04-26 14:49 -34.80876 -58.53709 70 ft 4 kts 246°
2026-04-26 14:49 -34.80864 -58.53679 68 ft 4 kts 237°
2026-04-26 14:49 -34.80847 -58.53655 72 ft 4 kts 215°
2026-04-26 14:49 -34.80828 -58.53647 72 ft 1 kts 164°
2026-04-26 14:50 -34.80824 -58.53649 70 ft 0 kts 164°
2026-04-26 14:52 -34.80825 -58.53648 71 ft 1 kts 164°
2026-04-26 14:52 -34.80836 -58.53644 64 ft 3 kts 163°
2026-04-26 14:53 -34.80860 -58.53636 71 ft 5 kts 164°
2026-04-26 14:53 -34.80897 -58.53623 72 ft 6 kts 164°
2026-04-26 14:53 -34.80950 -58.53604 69 ft 9 kts 163°
2026-04-26 14:53 -34.81024 -58.53579 71 ft 10 kts 164°
2026-04-26 14:54 -34.81098 -58.53555 73 ft 12 kts 171°
2026-04-26 14:54 -34.81179 -58.53582 71 ft 13 kts 195°
2026-04-26 14:54 -34.81266 -58.53587 68 ft 12 kts 177°
2026-04-26 14:54 -34.81356 -58.53590 69 ft 14 kts 186°
2026-04-26 14:55 -34.81441 -58.53614 69 ft 12 kts 199°
2026-04-26 14:55 -34.81520 -58.53656 74 ft 9 kts 211°
2026-04-26 14:55 -34.81576 -58.53707 74 ft 11 kts 223°
2026-04-26 14:55 -34.81636 -58.53763 71 ft 11 kts 203°
2026-04-26 14:56 -34.81712 -58.53740 65 ft 12 kts 153°
2026-04-26 14:56 -34.81791 -58.53695 71 ft 12 kts 154°
2026-04-26 14:56 -34.81870 -58.53646 74 ft 13 kts 147°
2026-04-26 14:56 -34.81920 -58.53553 74 ft 14 kts 102°
2026-04-26 14:57 -34.81945 -58.53429 74 ft 16 kts 104°
2026-04-26 14:57 -34.81971 -58.53294 71 ft 17 kts 103°
2026-04-26 14:57 -34.82000 -58.53154 75 ft 17 kts 104°
2026-04-26 14:57 -34.82025 -58.53019 76 ft 16 kts 102°
2026-04-26 14:58 -34.82051 -58.52887 69 ft 17 kts 104°
2026-04-26 14:58 -34.82083 -58.52738 69 ft 19 kts 103°
2026-04-26 14:58 -34.82112 -58.52588 73 ft 17 kts 103°
2026-04-26 14:58 -34.82136 -58.52454 75 ft 16 kts 104°
2026-04-26 14:59 -34.82164 -58.52326 73 ft 15 kts 104°
2026-04-26 14:59 -34.82186 -58.52215 71 ft 12 kts 103°
2026-04-26 14:59 -34.82203 -58.52115 72 ft 13 kts 102°
2026-04-26 14:59 -34.82221 -58.52041 71 ft 15 kts 106°
2026-04-26 15:00 -34.82254 -58.51861 65 ft 17 kts 108°
2026-04-26 15:00 -34.82311 -58.51783 67 ft 12 kts 178°
2026-04-26 15:00 -34.82396 -58.51802 68 ft 13 kts 192°
2026-04-26 15:00 -34.82479 -58.51829 85 ft 12 kts 198°
2026-04-26 15:01 -34.82524 -58.51851 81 ft 5 kts 228°
2026-04-26 15:01 -34.82525 -58.51887 81 ft 0 kts 282°
2026-04-26 15:02 -34.82502 -58.52014 79 ft 49 kts 282°
2026-04-26 15:02 -34.82373 -58.52729 80 ft 120 kts 282°
2026-04-26 15:02 -34.82162 -58.53932 263 ft 161 kts 282°
2026-04-26 15:03 -34.81876 -58.55290 1073 ft 170 kts 282°
2026-04-26 15:03 -34.81562 -58.56733 1882 ft 180 kts 282°
2026-04-26 15:03 -34.81158 -58.58201 2573 ft 193 kts 285°
2026-04-26 15:03 -34.80563 -58.59782 2990 ft 221 kts 302°
2026-04-26 15:04 -34.79143 -58.60818 3502 ft 260 kts 341°
2026-04-26 15:04 -34.77299 -58.60919 4516 ft 267 kts 353°
2026-04-26 15:04 -34.75437 -58.60838 5548 ft 267 kts 353°
2026-04-26 15:04 -34.73596 -58.60733 6599 ft 263 kts 352°
2026-04-26 15:05 -34.71760 -58.60633 7417 ft 267 kts 351°
2026-04-26 15:05 -34.70523 -58.60572 7953 ft 269 kts 351°
2026-04-26 15:05 -34.68287 -58.60468 9036 ft 269 kts 351°
2026-04-26 15:05 -34.66412 -58.60384 9912 ft 271 kts 350°
2026-04-26 15:06 -34.64487 -58.60308 10420 ft 286 kts 350°
2026-04-26 15:06 -34.62404 -58.60243 10616 ft 312 kts 351°
2026-04-26 15:06 -34.60150 -58.60169 10860 ft 333 kts 351°
2026-04-26 15:06 -34.57800 -58.60079 11442 ft 342 kts 352°
2026-04-26 15:07 -34.52980 -58.59874 12973 ft 350 kts 351°
2026-04-26 15:07 -34.50533 -58.59773 13697 ft 354 kts 351°
2026-04-26 15:07 -34.48046 -58.59675 14305 ft 359 kts 350°
2026-04-26 15:08 -34.45531 -58.59578 14905 ft 365 kts 349°
2026-04-26 15:08 -34.42971 -58.59480 15512 ft 370 kts 349°
2026-04-26 15:08 -34.40382 -58.59382 16130 ft 375 kts 348°
2026-04-26 15:08 -34.37758 -58.59284 16721 ft 380 kts 347°
2026-04-26 15:09 -34.35102 -58.59184 17322 ft 384 kts 347°
2026-04-26 15:09 -34.32408 -58.59082 17909 ft 389 kts 347°
2026-04-26 15:09 -34.29679 -58.58981 18439 ft 395 kts 347°
2026-04-26 15:09 -34.26920 -58.58875 18994 ft 397 kts 347°
2026-04-26 15:10 -34.24150 -58.58766 19568 ft 399 kts 347°
2026-04-26 15:10 -34.22308 -58.58695 19937 ft 401 kts 347°
2026-04-26 15:10 -34.18549 -58.58552 20646 ft 406 kts 348°
2026-04-26 15:10 -34.15714 -58.58445 21168 ft 409 kts 348°
2026-04-26 15:11 -34.12859 -58.58337 21670 ft 412 kts 348°
2026-04-26 15:11 -34.09980 -58.58228 22163 ft 415 kts 348°
2026-04-26 15:11 -34.07080 -58.58119 22650 ft 418 kts 348°
2026-04-26 15:11 -34.04156 -58.58008 23115 ft 422 kts 348°
2026-04-26 15:12 -34.01211 -58.57897 23583 ft 425 kts 348°
2026-04-26 15:12 -33.98250 -58.57784 23979 ft 427 kts 348°
2026-04-26 15:12 -33.95269 -58.57671 24368 ft 429 kts 349°
2026-04-26 15:12 -33.92274 -58.57559 24767 ft 431 kts 349°
2026-04-26 15:13 -33.89273 -58.57499 25158 ft 430 kts 346°
2026-04-26 15:13 -33.86292 -58.57578 25540 ft 429 kts 345°
2026-04-26 15:13 -33.83329 -58.57724 25918 ft 430 kts 345°
2026-04-26 15:13 -33.80301 -58.57892 26285 ft 432 kts 345°
2026-04-26 15:14 -33.77293 -58.58057 26652 ft 434 kts 345°
2026-04-26 15:14 -33.74264 -58.58213 27011 ft 436 kts 345°
2026-04-26 15:14 -33.71230 -58.58359 27357 ft 438 kts 345°
2026-04-26 15:14 -33.68174 -58.58498 27706 ft 440 kts 346°
2026-04-26 15:15 -33.65083 -58.58635 28045 ft 442 kts 346°
2026-04-26 15:15 -33.62023 -58.58768 28381 ft 443 kts 346°
2026-04-26 15:15 -33.58931 -58.58901 28713 ft 445 kts 346°
2026-04-26 15:15 -33.55826 -58.59034 29034 ft 446 kts 346°
2026-04-26 15:16 -33.52716 -58.59169 29344 ft 448 kts 346°
2026-04-26 15:16 -33.49594 -58.59304 29651 ft 449 kts 346°
2026-04-26 15:16 -33.47474 -58.59396 29880 ft 449 kts 346°
2026-04-26 15:16 -33.43314 -58.59572 30436 ft 446 kts 346°
2026-04-26 15:17 -33.41258 -58.59659 30707 ft 444 kts 346°
2026-04-26 15:17 -33.39208 -58.59746 30926 ft 444 kts 346°
2026-04-26 15:17 -33.35083 -58.59925 31331 ft 443 kts 346°
2026-04-26 15:17 -33.31918 -58.60063 31653 ft 443 kts 345°
2026-04-26 15:18 -33.28836 -58.60197 31984 ft 441 kts 345°
2026-04-26 15:18 -33.25773 -58.60330 32287 ft 441 kts 345°
2026-04-26 15:18 -33.22650 -58.60465 32580 ft 441 kts 345°
2026-04-26 15:18 -33.19599 -58.60597 32879 ft 440 kts 345°
2026-04-26 15:19 -33.16542 -58.60729 33186 ft 439 kts 345°
2026-04-26 15:19 -33.13491 -58.60861 33455 ft 439 kts 345°
2026-04-26 15:19 -33.10428 -58.60994 33713 ft 439 kts 345°
2026-04-26 15:19 -33.07379 -58.61125 33986 ft 438 kts 345°
2026-04-26 15:20 -33.04304 -58.61256 34233 ft 437 kts 345°
2026-04-26 15:20 -33.01207 -58.61146 34447 ft 452 kts 353°
2026-04-26 15:20 -32.98018 -58.60464 34649 ft 470 kts
2026-04-26 15:20 -32.94873 -58.59351 34898 ft 473 kts
2026-04-26 15:21 -32.91816 -58.58198 35122 ft 473 kts
2026-04-26 15:21 -32.88592 -58.56965 35331 ft 473 kts
2026-04-26 15:21 -32.85434 -58.55769 35551 ft 472 kts
2026-04-26 15:21 -32.82284 -58.54593 35786 ft 471 kts
2026-04-26 15:22 -32.79151 -58.53440 36000 ft 470 kts
2026-04-26 15:22 -32.76022 -58.52300 36221 ft 469 kts
2026-04-26 15:22 -32.72900 -58.51167 36436 ft 468 kts
2026-04-26 15:22 -32.69783 -58.50039 36648 ft 468 kts
2026-04-26 15:23 -32.66599 -58.48888 36871 ft 467 kts
2026-04-26 15:23 -32.63392 -58.47730 36934 ft 469 kts
2026-04-26 15:23 -32.57140 -58.45472 36929 ft 468 kts
2026-04-26 15:24 -32.50940 -58.43226 36925 ft 463 kts
2026-04-26 15:24 -32.44812 -58.41014 36931 ft 459 kts
2026-04-26 15:25 -32.39705 -58.39177 36937 ft 457 kts
2026-04-26 15:25 -32.32596 -58.36625 36943 ft 459 kts
2026-04-26 15:26 -32.26440 -58.34417 36954 ft 465 kts
2026-04-26 15:26 -32.20091 -58.32129 36946 ft 468 kts
2026-04-26 15:27 -32.13935 -58.29909 36942 ft 470 kts
2026-04-26 15:27 -32.07703 -58.27662 36936 ft 469 kts
2026-04-26 15:28 -32.02511 -58.25794 36944 ft 468 kts
2026-04-26 15:28 -31.96197 -58.23528 36942 ft 466 kts
2026-04-26 15:29 -31.89925 -58.21281 36941 ft 464 kts
2026-04-26 15:30 -31.77546 -58.16858 36944 ft 459 kts
2026-04-26 15:30 -31.71440 -58.14682 36938 ft 458 kts
2026-04-26 15:31 -31.62237 -58.11408 36938 ft 456 kts
2026-04-26 15:32 -31.54057 -58.08504 36929 ft 456 kts
2026-04-26 15:32 -31.46857 -58.05952 36927 ft 457 kts
2026-04-26 15:33 -31.40750 -58.03791 36925 ft 458 kts
2026-04-26 15:33 -31.34628 -58.01627 36969 ft 459 kts
2026-04-26 15:34 -31.28455 -57.99447 36957 ft 460 kts
2026-04-26 15:34 -31.22315 -57.97281 36959 ft 461 kts
2026-04-26 15:35 -31.16037 -57.95069 36956 ft 462 kts
2026-04-26 15:35 -31.09792 -57.92872 36952 ft 461 kts
2026-04-26 15:36 -31.04642 -57.91062 36948 ft 461 kts
2026-04-26 15:36 -30.98500 -57.88906 36947 ft 460 kts
2026-04-26 15:37 -30.92331 -57.86744 36953 ft 459 kts
2026-04-26 15:37 -30.86213 -57.84603 36948 ft 458 kts 360°
2026-04-26 15:38 -30.80148 -57.82484 36948 ft 456 kts 360°
2026-04-26 15:38 -30.73913 -57.80308 36949 ft 455 kts 360°
2026-04-26 15:39 -30.67808 -57.78179 36948 ft 454 kts 360°
2026-04-26 15:39 -30.62722 -57.76396 36950 ft 454 kts 360°
2026-04-26 15:40 -30.55625 -57.73906 36949 ft 453 kts 360°
2026-04-26 15:40 -30.49541 -57.71775 36953 ft 453 kts 360°
2026-04-26 15:41 -30.43452 -57.69645 36954 ft 454 kts 360°
2026-04-26 15:41 -30.37360 -57.67518 36955 ft 454 kts 360°
2026-04-26 15:42 -30.31302 -57.65405 36956 ft 454 kts 360°
2026-04-26 15:42 -30.25316 -57.62781 36951 ft 483 kts 13°
2026-04-26 15:43 -30.22389 -57.60640 36988 ft 496 kts 19°
2026-04-26 15:43 -30.19545 -57.58364 36959 ft 499 kts 20°
2026-04-26 15:44 -30.10920 -57.51289 36945 ft 499 kts 20°
2026-04-26 15:44 -30.02320 -57.44402 36944 ft 497 kts 19°
2026-04-26 15:45 -29.93764 -57.37635 36942 ft 496 kts 19°
2026-04-26 15:46 -29.86139 -57.31611 36942 ft 495 kts 19°
2026-04-26 15:46 -29.81369 -57.27846 36949 ft 495 kts 19°
2026-04-26 15:47 -29.71898 -57.20383 36956 ft 493 kts 19°
2026-04-26 15:48 -29.66200 -57.15903 36949 ft 493 kts 19°
2026-04-26 15:48 -29.60529 -57.11450 36948 ft 493 kts 19°
2026-04-26 15:49 -29.54863 -57.07007 36948 ft 493 kts 19°
2026-04-26 15:49 -29.49148 -57.02531 36948 ft 493 kts 19°
2026-04-26 15:50 -29.43500 -56.98113 36950 ft 493 kts 19°
2026-04-26 15:50 -29.37788 -56.93653 36950 ft 494 kts 19°
2026-04-26 15:51 -29.32023 -56.89156 36951 ft 494 kts 19°
2026-04-26 15:51 -29.26294 -56.84694 36950 ft 495 kts 20°
2026-04-26 15:52 -29.20544 -56.80222 36953 ft 495 kts 20°
2026-04-26 15:52 -29.14740 -56.75713 36946 ft 495 kts 20°
2026-04-26 15:53 -29.09029 -56.71283 36954 ft 495 kts 20°
2026-04-26 15:53 -29.03242 -56.66799 36944 ft 495 kts 20°
2026-04-26 15:54 -28.97490 -56.62349 36943 ft 495 kts 20°
2026-04-26 15:54 -28.91777 -56.57934 36944 ft 495 kts 20°
2026-04-26 15:55 -28.86063 -56.53526 36943 ft 495 kts 20°
2026-04-26 15:55 -28.80320 -56.49107 36943 ft 494 kts 20°
2026-04-26 15:56 -28.75460 -56.45374 36941 ft 494 kts 20°
2026-04-26 15:56 -28.69766 -56.41003 36941 ft 494 kts 20°
2026-04-26 15:57 -28.64059 -56.36627 36943 ft 493 kts 20°
2026-04-26 15:57 -28.58364 -56.32265 36954 ft 493 kts 20°
2026-04-26 15:58 -28.52674 -56.27914 36946 ft 493 kts 20°
2026-04-26 15:58 -28.46979 -56.23564 36943 ft 492 kts 20°
2026-04-26 15:59 -28.41273 -56.19212 36943 ft 492 kts 20°
2026-04-26 15:59 -28.35601 -56.14891 36943 ft 492 kts 21°
2026-04-26 16:00 -28.29915 -56.10566 36945 ft 492 kts 21°
2026-04-26 16:00 -28.24192 -56.06218 36939 ft 491 kts 21°
2026-04-26 16:01 -28.18408 -56.01829 36940 ft 491 kts 21°
2026-04-26 16:01 -28.12842 -55.97611 36943 ft 490 kts 21°
2026-04-26 16:02 -28.07077 -55.93248 36943 ft 490 kts 21°
2026-04-26 16:02 -28.01369 -55.88934 36945 ft 490 kts 21°
2026-04-26 16:03 -27.95657 -55.84622 36946 ft 489 kts 21°
2026-04-26 16:03 -27.89910 -55.80289 36948 ft 489 kts 21°
2026-04-26 16:04 -27.84173 -55.75970 36951 ft 489 kts 21°
2026-04-26 16:04 -27.78465 -55.71678 36759 ft 489 kts 21°
2026-04-26 16:04 -27.75587 -55.69514 36953 ft 488 kts 21°
2026-04-26 16:05 -27.72804 -55.67423 36940 ft 488 kts 21°
2026-04-26 16:05 -27.67114 -55.63156 36942 ft 488 kts 21°
2026-04-26 16:06 -27.61567 -55.58569 36925 ft 507 kts 37°
2026-04-26 16:06 -27.59483 -55.55261 36958 ft 526 kts 54°
2026-04-26 16:06 -27.57815 -55.51589 36950 ft 528 kts 56°
2026-04-26 16:07 -27.54640 -55.44126 36755 ft 530 kts 57°
2026-04-26 16:07 -27.53049 -55.40423 36209 ft 531 kts 56°
2026-04-26 16:07 -27.51394 -55.36640 35643 ft 528 kts 56°
2026-04-26 16:07 -27.49723 -55.32883 35036 ft 529 kts 55°
2026-04-26 16:08 -27.48618 -55.30422 34618 ft 529 kts 55°
2026-04-26 16:08 -27.46925 -55.26672 33782 ft 535 kts 55°
2026-04-26 16:08 -27.45234 -55.22931 33007 ft 537 kts 55°
2026-04-26 16:08 -27.43538 -55.19169 32282 ft 538 kts 56°
2026-04-26 16:09 -27.41841 -55.15400 31610 ft 538 kts 56°
2026-04-26 16:09 -27.40159 -55.11658 31110 ft 534 kts 56°
2026-04-26 16:09 -27.38484 -55.07936 30600 ft 530 kts 56°
2026-04-26 16:09 -27.36797 -55.04198 30072 ft 527 kts 55°
2026-04-26 16:10 -27.35054 -55.00603 29489 ft 515 kts 47°
2026-04-26 16:10 -27.32661 -54.97503 28921 ft 489 kts 31°
2026-04-26 16:10 -27.29983 -54.95329 28423 ft 470 kts 22°
2026-04-26 16:10 -27.27265 -54.93372 28308 ft 455 kts 22°
2026-04-26 16:11 -27.24649 -54.91503 28180 ft 443 kts 21°
2026-04-26 16:11 -27.22050 -54.89643 27845 ft 436 kts 21°
2026-04-26 16:11 -27.19494 -54.87804 27341 ft 435 kts 22°
2026-04-26 16:11 -27.16944 -54.85958 26817 ft 434 kts 22°
2026-04-26 16:12 -27.14380 -54.84090 26349 ft 432 kts 22°
2026-04-26 16:12 -27.11871 -54.82253 25899 ft 429 kts 23°
2026-04-26 16:12 -27.06821 -54.78549 24980 ft 426 kts 24°
2026-04-26 16:13 -27.04345 -54.76732 24553 ft 424 kts 24°
2026-04-26 16:13 -27.01812 -54.74875 24120 ft 422 kts 23°
2026-04-26 16:13 -26.99323 -54.73061 23723 ft 420 kts 24°
2026-04-26 16:13 -26.96747 -54.71180 23265 ft 418 kts 24°
2026-04-26 16:14 -26.94318 -54.69397 22835 ft 415 kts 24°
2026-04-26 16:14 -26.91913 -54.67631 22446 ft 411 kts 24°
2026-04-26 16:14 -26.87129 -54.64130 21685 ft 402 kts 25°
2026-04-26 16:15 -26.84742 -54.62388 21281 ft 399 kts 25°
2026-04-26 16:15 -26.82427 -54.60700 20895 ft 396 kts 25°
2026-04-26 16:15 -26.80882 -54.59573 20664 ft 394 kts 25°
2026-04-26 16:16 -26.76214 -54.56170 19933 ft 385 kts 26°
2026-04-26 16:16 -26.73995 -54.54556 19522 ft 384 kts 26°
2026-04-26 16:16 -26.71767 -54.52935 19189 ft 381 kts 26°
2026-04-26 16:16 -26.69482 -54.51520 18850 ft 369 kts 15°
2026-04-26 16:17 -26.67084 -54.50576 18538 ft 362 kts 12°
2026-04-26 16:17 -26.64691 -54.49721 18180 ft 360 kts 11°
2026-04-26 16:17 -26.62311 -54.48883 17726 ft 358 kts 11°
2026-04-26 16:17 -26.59878 -54.48015 17300 ft 357 kts 12°
2026-04-26 16:18 -26.57423 -54.47126 16890 ft 355 kts 12°
2026-04-26 16:18 -26.52724 -54.45397 16080 ft 351 kts 12°
2026-04-26 16:19 -26.48807 -54.43942 15414 ft 349 kts 12°
2026-04-26 16:19 -26.45584 -54.42744 14924 ft 346 kts 12°
2026-04-26 16:19 -26.41636 -54.41277 14321 ft 342 kts 12°
2026-04-26 16:20 -26.39377 -54.40438 13965 ft 340 kts 12°
2026-04-26 16:20 -26.35268 -54.38913 13246 ft 338 kts 12°
2026-04-26 16:20 -26.33066 -54.38095 12898 ft 335 kts 12°
2026-04-26 16:21 -26.30695 -54.37215 12489 ft 334 kts 12°
2026-04-26 16:21 -26.28580 -54.36430 12149 ft 333 kts 12°
2026-04-26 16:21 -26.26260 -54.35571 11804 ft 331 kts 12°
2026-04-26 16:21 -26.24111 -54.34950 11425 ft 324 kts
2026-04-26 16:22 -26.21886 -54.34755 11104 ft 319 kts 357°
2026-04-26 16:22 -26.19696 -54.34635 10963 ft 310 kts 357°
2026-04-26 16:22 -26.17560 -54.34520 10873 ft 299 kts 357°
2026-04-26 16:22 -26.15512 -54.34377 10644 ft 297 kts
2026-04-26 16:23 -26.13526 -54.33571 10231 ft 306 kts 26°
2026-04-26 16:23 -26.11755 -54.32198 9743 ft 308 kts 32°
2026-04-26 16:23 -26.10075 -54.30780 9489 ft 297 kts 32°
2026-04-26 16:23 -26.08452 -54.29394 9099 ft 292 kts 33°
2026-04-26 16:24 -26.06820 -54.28005 8649 ft 290 kts 33°
2026-04-26 16:24 -26.05187 -54.26620 8210 ft 289 kts 32°
2026-04-26 16:24 -26.03566 -54.25248 7898 ft 287 kts 33°
2026-04-26 16:24 -26.02535 -54.24379 7668 ft 285 kts 33°
2026-04-26 16:25 -26.00385 -54.22590 7112 ft 281 kts 32°
2026-04-26 16:25 -25.98847 -54.21318 6926 ft 269 kts 32°
2026-04-26 16:25 -25.97380 -54.20099 6758 ft 258 kts 32°
2026-04-26 16:25 -25.95963 -54.18932 6565 ft 247 kts 27°
2026-04-26 16:26 -25.94397 -54.18426 6227 ft 230 kts 349°
2026-04-26 16:26 -25.93382 -54.18773 5922 ft 221 kts 323°
2026-04-26 16:26 -25.92083 -54.19829 5497 ft 220 kts 319°
2026-04-26 16:26 -25.90780 -54.20944 5178 ft 218 kts 319°
2026-04-26 16:27 -25.89588 -54.21960 4969 ft 210 kts 319°
2026-04-26 16:27 -25.88347 -54.23010 4676 ft 202 kts 320°
2026-04-26 16:27 -25.87184 -54.23989 4394 ft 197 kts 320°
2026-04-26 16:27 -25.86053 -54.24934 4143 ft 196 kts 320°
2026-04-26 16:28 -25.85272 -54.25585 3960 ft 194 kts 320°
2026-04-26 16:28 -25.84181 -54.26493 3779 ft 186 kts 320°
2026-04-26 16:28 -25.83343 -54.27517 3748 ft 173 kts 297°
2026-04-26 16:28 -25.82711 -54.28667 3787 ft 179 kts 300°
2026-04-26 16:29 -25.82025 -54.29824 3800 ft 184 kts 301°
2026-04-26 16:29 -25.81291 -54.31047 3760 ft 191 kts 301°
2026-04-26 16:29 -25.80547 -54.32281 3536 ft 190 kts 302°
2026-04-26 16:29 -25.79822 -54.33478 3330 ft 184 kts 302°
2026-04-26 16:30 -25.79118 -54.34640 3095 ft 179 kts 301°
2026-04-26 16:30 -25.78518 -54.35840 2824 ft 177 kts 294°
2026-04-26 16:30 -25.78011 -54.37045 2606 ft 166 kts 292°
2026-04-26 16:30 -25.77484 -54.38318 2362 ft 158 kts 292°
2026-04-26 16:31 -25.77065 -54.39331 2160 ft 155 kts 293°
2026-04-26 16:31 -25.76633 -54.40358 2041 ft 151 kts 291°
2026-04-26 16:31 -25.76277 -54.41223 1819 ft 149 kts 293°
2026-04-26 16:31 -25.75890 -54.42152 1658 ft 143 kts 294°
2026-04-26 16:32 -25.75324 -54.43524 1411 ft 145 kts 294°
2026-04-26 16:32 -25.75035 -54.44213 1296 ft 147 kts 294°
2026-04-26 16:32 -25.74474 -54.45594 1072 ft 150 kts 295°
2026-04-26 16:32 -25.74036 -54.46622 934 ft 135 kts 295°
2026-04-26 16:33 -25.73681 -54.47464 927 ft 102 kts 295°
2026-04-26 16:33 -25.73431 -54.48054 929 ft 66 kts 295°
2026-04-26 16:33 -25.73335 -54.48294 928 ft 34 kts 294°
2026-04-26 16:33 -25.73271 -54.48369 927 ft 1 kts 26°
2026-04-26 16:34 -25.73265 -54.48359 928 ft 2 kts 62°
2026-04-26 16:34 -25.73260 -54.48337 929 ft 5 kts 80°
2026-04-26 16:34 -25.73256 -54.48286 928 ft 9 kts 85°
2026-04-26 16:34 -25.73249 -54.48202 929 ft 14 kts 85°
2026-04-26 16:35 -25.73240 -54.48094 930 ft 14 kts 85°
2026-04-26 16:35 -25.73233 -54.48000 927 ft 12 kts 85°
2026-04-26 16:35 -25.73226 -54.47912 929 ft 11 kts 85°
2026-04-26 16:35 -25.73220 -54.47833 926 ft 9 kts 89°
2026-04-26 16:36 -25.73239 -54.47771 927 ft 8 kts 115°
2026-04-26 16:36 -25.73263 -54.47713 927 ft 8 kts 114°
2026-04-26 16:36 -25.73274 -54.47680 927 ft 4 kts 96°
2026-04-26 16:36 -25.73259 -54.47653 927 ft 4 kts 37°
2026-04-26 16:37 -25.73250 -54.47647 927 ft 1 kts 28°
2026-04-26 16:37 -25.73241 -54.47643 926 ft 1 kts 27°
2026-04-26 16:37 -25.73241 -54.47642 926 ft 0 kts 27°